Quick links : Home Page : Contact Us : Index : Site Map : Search Site : Ephemerides


99P/Kowal

Orbital Elements

The following orbital elements are taken from MPC 51821:
99P/Kowal
Epoch 2007 Jan. 20.0 TT = JDT 2454120.5
T 2007 Jan. 15.7150 TT                                  MPC
q   4.718308             (2000.0)            P               Q
n   0.0653325      Peri.  172.8256      -0.9319921      +0.3606830
a   6.105437       Node    28.3999      -0.3362181      -0.8230402
e   0.227196       Incl.    4.3451      -0.1354553      -0.4387626
P  15.1
From 38 observations 1977-1995, mean residual 0".8.
Elements are also available for the current standard epoch:
99P/Kowal
Epoch 2008 Nov. 30.0 TT = JDT 2454800.5
T 2007 Jan. 24.1723 TT                                  MPC
q   4.726253             (2000.0)            P               Q
n   0.0648339      Peri.  173.8203      -0.9262311      +0.3752490
a   6.136699       Node    28.3028      -0.3490061      -0.8177493
e   0.229838       Incl.    4.3344      -0.1424452      -0.4364335
P  15.2
An explanation of the orbital elements is available.

These orbital elements are also available in forms suitable for loading into a number of popular planetarium-type software programs.


Ephemeris

The following ephemeris is at intervals of five days. A daily ephemeris covering the same time interval is also available.

Personalized ephemerides for this (and other) objects may be generated using the Minor Planet & Comet Ephemeris Service.

Recent magnitude estimates for this comet (as reported to the ICQ) may be available.

Date    TT    R. A. (2000) Decl.     Delta      r     Elong.  Phase   m1    m2

WARNING!

This comet gets close to the sun during the period covered in the ephemeris below. Observers are warned to be wary of observing comets near the sun. NEVER point any kind of optical instrument at the sun--instant blindness will be the probable result.

2008 09 11 16 32.40 -25 23.1 5.250 5.202 81.8 11.0 18.8 21.9 2008 09 16 16 35.13 -25 26.8 5.333 5.209 77.5 10.9 18.9 21.9 2008 09 21 16 38.10 -25 30.9 5.414 5.216 73.3 10.6 18.9 21.9 2008 09 26 16 41.31 -25 35.3 5.495 5.223 69.2 10.3 19.0 21.9 2008 10 01 16 44.74 -25 39.9 5.573 5.230 65.0 10.0 19.0 22.0 2008 10 06 16 48.37 -25 44.7 5.649 5.238 61.0 9.6 19.0 22.0 2008 10 11 16 52.20 -25 49.7 5.723 5.245 56.9 9.2 19.1 22.0 2008 10 16 16 56.21 -25 54.7 5.793 5.252 52.9 8.7 19.1 22.0 2008 10 21 17 00.38 -25 59.6 5.861 5.259 48.8 8.2 19.2 22.0 2008 10 26 17 04.70 -26 04.5 5.924 5.267 44.9 7.7 19.2 22.0 2008 10 31 17 09.16 -26 09.3 5.984 5.274 40.9 7.1 19.2 22.0 2008 11 05 17 13.74 -26 13.9 6.040 5.281 36.9 6.5 19.2 22.0 2008 11 10 17 18.44 -26 18.2 6.092 5.289 33.0 5.8 19.3 22.0 2008 11 15 17 23.23 -26 22.2 6.139 5.296 29.0 5.2 19.3 22.0 2008 11 20 17 28.10 -26 25.9 6.181 5.304 25.1 4.5 19.3 22.0 2008 11 25 17 33.05 -26 29.3 6.219 5.311 21.2 3.9 19.3 22.0 2008 11 30 17 38.06 -26 32.2 6.252 5.318 17.3 3.2 19.4 21.9 2008 12 05 17 43.12 -26 34.7 6.279 5.326 13.5 2.5 19.4 21.9 2008 12 10 17 48.20 -26 36.8 6.302 5.334 9.7 1.8 19.4 21.9 2008 12 15 17 53.30 -26 38.4 6.319 5.341 6.1 1.1 19.4 21.8 2008 12 20 17 58.42 -26 39.6 6.330 5.349 3.5 0.6 19.4 21.8 2008 12 25 18 03.52 -26 40.3 6.337 5.356 4.2 0.8 19.4 21.8 2008 12 30 18 08.61 -26 40.6 6.338 5.364 7.4 1.3 19.5 21.8 2009 01 04 18 13.67 -26 40.4 6.333 5.372 11.1 2.0 19.5 21.9 2009 01 09 18 18.68 -26 39.8 6.323 5.379 14.9 2.7 19.5 21.9 2009 01 14 18 23.62 -26 38.9 6.308 5.387 18.8 3.4 19.5 22.0 2009 01 19 18 28.50 -26 37.5 6.288 5.395 22.8 4.0 19.5 22.0 2009 01 24 18 33.30 -26 35.9 6.263 5.402 26.7 4.7 19.5 22.1 2009 01 29 18 38.00 -26 33.9 6.233 5.410 30.8 5.3 19.5 22.1 2009 02 03 18 42.58 -26 31.8 6.198 5.418 34.8 6.0 19.5 22.1 2009 02 08 18 47.04 -26 29.4 6.159 5.426 38.8 6.5 19.5 22.1 2009 02 13 18 51.36 -26 27.0 6.115 5.433 42.9 7.1 19.5 22.1 2009 02 18 18 55.53 -26 24.4 6.067 5.441 47.0 7.6 19.5 22.1 2009 02 23 18 59.54 -26 21.9 6.015 5.449 51.1 8.1 19.4 22.1 2009 02 28 19 03.36 -26 19.4 5.960 5.457 55.3 8.6 19.4 22.1 2009 03 05 19 07.00 -26 17.1 5.901 5.465 59.5 9.0 19.4 22.1 2009 03 10 19 10.42 -26 15.0 5.840 5.473 63.7 9.4 19.4 22.1 2009 03 15 19 13.63 -26 13.1 5.775 5.481 68.0 9.7 19.4 22.1 2009 03 20 19 16.61 -26 11.6 5.709 5.488 72.3 10.0 19.4 22.1 2009 03 25 19 19.34 -26 10.5 5.641 5.496 76.6 10.2 19.4 22.1 2009 03 30 19 21.81 -26 09.8 5.571 5.504 81.0 10.3 19.3 22.1 2009 04 04 19 24.01 -26 09.7 5.501 5.512 85.4 10.4 19.3 22.1 2009 04 09 19 25.92 -26 10.1 5.430 5.520 89.9 10.5 19.3 22.0 2009 04 14 19 27.55 -26 11.2 5.359 5.528 94.4 10.4 19.3 22.0 2009 04 19 19 28.86 -26 12.9 5.289 5.536 99.0 10.3 19.3 22.0 2009 04 24 19 29.87 -26 15.3 5.220 5.544 103.7 10.2 19.2 22.0 2009 04 29 19 30.55 -26 18.4 5.152 5.552 108.4 9.9 19.2 21.9 2009 05 04 19 30.91 -26 22.1 5.086 5.560 113.1 9.6 19.2 21.9 2009 05 09 19 30.95 -26 26.5 5.023 5.568 118.0 9.2 19.2 21.8 2009 05 14 19 30.66 -26 31.4 4.963 5.576 122.9 8.8 19.2 21.8 2009 05 19 19 30.05 -26 36.9 4.907 5.584 127.8 8.2 19.2 21.8 2009 05 24 19 29.12 -26 42.9 4.855 5.592 132.8 7.6 19.1 21.7 2009 05 29 19 27.89 -26 49.3 4.808 5.600 137.8 7.0 19.1 21.7 2009 06 03 19 26.38 -26 55.9 4.766 5.609 142.9 6.3 19.1 21.6 2009 06 08 19 24.61 -27 02.6 4.730 5.617 148.1 5.5 19.1 21.6 2009 06 13 19 22.60 -27 09.4 4.700 5.625 153.2 4.7 19.1 21.5 2009 06 18 19 20.39 -27 16.0 4.676 5.633 158.3 3.8 19.1 21.5 2009 06 23 19 18.00 -27 22.4 4.659 5.641 163.4 2.9 19.1 21.4 2009 06 28 19 15.49 -27 28.4 4.650 5.649 168.4 2.1 19.1 21.3 2009 07 03 19 12.89 -27 33.9 4.647 5.657 172.8 1.3 19.1 21.3 2009 07 08 19 10.26 -27 38.8 4.652 5.665 174.8 0.9 19.1 21.3 2009 07 13 19 07.62 -27 43.0 4.664 5.673 172.4 1.4 19.2 21.3 2009 07 18 19 05.04 -27 46.5 4.684 5.682 167.9 2.2 19.2 21.4 2009 07 23 19 02.54 -27 49.3 4.711 5.690 162.9 3.0 19.2 21.4 2009 07 28 19 00.18 -27 51.2 4.745 5.698 157.8 3.9 19.2 21.5 2009 08 02 18 58.00 -27 52.4 4.785 5.706 152.7 4.7 19.2 21.6 2009 08 07 18 56.03 -27 52.8 4.832 5.714 147.5 5.5 19.3 21.7 2009 08 12 18 54.29 -27 52.4 4.886 5.722 142.4 6.2 19.3 21.7 2009 08 17 18 52.82 -27 51.4 4.945 5.730 137.4 6.9 19.3 21.8 2009 08 22 18 51.62 -27 49.7 5.009 5.739 132.3 7.5 19.4 21.8 2009 08 27 18 50.74 -27 47.5 5.077 5.747 127.3 8.0 19.4 21.9 2009 09 01 18 50.16 -27 44.7 5.151 5.755 122.4 8.5 19.5 21.9 2009 09 06 18 49.89 -27 41.4 5.227 5.763 117.5 8.9 19.5 22.0 2009 09 11 18 49.95 -27 37.7 5.307 5.771 112.7 9.3 19.5 22.0 2009 09 16 18 50.32 -27 33.6 5.390 5.780 108.0 9.5 19.6 22.1 2009 09 21 18 51.00 -27 29.1 5.474 5.788 103.3 9.7 19.6 22.1 2009 09 26 18 51.99 -27 24.2 5.560 5.796 98.6 9.8 19.7 22.2 2009 10 01 18 53.28 -27 19.1 5.647 5.804 94.0 9.9 19.7 22.2 2009 10 06 18 54.85 -27 13.6 5.735 5.812 89.5 9.9 19.8 22.3 2009 10 11 18 56.70 -27 07.8 5.823 5.820 85.0 9.8 19.8 22.3 2009 10 16 18 58.80 -27 01.6 5.910 5.829 80.5 9.7 19.8 22.3

Back to Observable Comets

MPC CBAT ICQ

Valid HTML 4.01!